Terminal Aerodrome Forecast
Issued by NWS

Home | Current Version | Previous Version | Text Only | Print | Product List | Glossary On
Versions: 1 2 3 4 5 6 7 8 9 10 11 12 13 14 15 16
000
FTUS42 KMLB 252021 AAA
TAFSUA
TAF AMD
KSUA 252021Z 2520/2618 29010KT P6SM SCT025
     FM260000 26004KT P6SM FEW030
     FM261000 35009KT P6SM SKC
     FM261600 02012KT P6SM FEW035=

USA.gov is the U.S. government's official web portal to all federal, state and local government web resources and services.